IGETXO42 Weather Reports


time (UTC)temp
C
wind
direction
speed
KPH
gust
KPH
rain 1hr
cm
rain 24hr
cm
rain mn
cm
humidity
%
barometer
mb
20260506174551 16 174 0.0 1.6 0.00 0.28 0.08 74 1014.3
20260506173053 17 176 0.0 4.8 0.00 0.28 0.08 71 1014.4
20260506171553 17 176 1.6 4.8 0.00 0.28 0.08 70 1014.4
20260506170107 17 0 0.0 3.2 0.00 0.28 0.08 70 1014.4
20260506164556 16 300 1.6 6.4 0.00 0.28 0.08 72 1014.4
20260506163110 17 194 1.6 6.4 0.00 0.28 0.08 71 1014.6
20260506161601 16 261 1.6 6.4 0.00 0.28 0.08 75 1014.6
20260506160109 16 203 1.6 6.4 0.00 0.28 0.08 74 1014.6
20260506154555 16 176 1.6 6.4 0.00 0.28 0.08 79 1014.7
20260506153050 15 110 1.6 6.4 0.00 0.28 0.08 80 1014.6
20260506151551 15 176 1.6 4.8 0.00 0.28 0.08 81 1014.9
20260506150053 15 176 0.0 1.6 0.00 0.28 0.08 83 1015.1
20260506144606 14 0 1.6 6.4 0.00 0.28 0.08 82 1015.1
20260506143103 15 163 0.0 4.8 0.00 0.28 0.08 83 1015.4
20260506141550 15 146 0.0 4.8 0.00 0.28 0.05 82 1015.5
20260506140054 15 77 0.0 4.8 0.00 0.28 0.05 79 1015.5
20260506134556 16 209 1.6 6.4 0.00 0.28 0.05 76 1015.3
20260506133052 16 195 3.2 12.9 0.00 0.28 0.05 77 1015.3
20260506131556 15 148 3.2 6.4 0.00 0.28 0.05 77 1015.5
20260506130059 15 196 3.2 11.3 0.00 0.28 0.05 78 1015.3
20260506124552 15 308 3.2 8.0 0.00 0.28 0.05 78 1015.2
20260506123055 15 193 4.8 12.9 0.00 0.28 0.05 78 1015.0
20260506121557 15 324 4.8 11.3 0.00 0.28 0.05 75 1014.9
20260506120053 16 202 3.2 8.0 0.00 0.28 0.05 75 1015.0
20260506114556 16 358 3.2 14.5 0.00 0.28 0.05 74 1015.0
20260506113054 16 46 3.2 6.4 0.00 0.28 0.05 78 1015.0
20260506111554 15 172 3.2 9.7 0.00 0.28 0.05 79 1015.0
20260506110050 15 25 4.8 11.3 0.00 0.28 0.05 81 1015.0
20260506104553 15 295 3.2 8.0 0.00 0.28 0.05 81 1015.0
20260506103054 15 260 3.2 9.7 0.00 0.25 0.03 76 1015.0
20260506101554 15 333 3.2 16.1 0.00 0.25 0.03 76 1015.0
20260506100055 15 292 3.2 8.0 0.00 0.25 0.03 75 1014.9
20260506094601 15 283 3.2 9.7 0.00 0.25 0.03 74 1014.8
20260506093052 14 327 3.2 8.0 0.00 0.25 0.03 75 1014.7
20260506091550 14 193 3.2 11.3 0.00 0.25 0.03 77 1014.6
20260506090056 14 8 3.2 9.7 0.00 0.25 0.03 77 1014.6
20260506084612 14 321 3.2 8.0 0.00 0.25 0.03 77 1014.5
20260506083056 14 77 4.8 12.9 0.00 0.25 0.03 76 1014.5
20260506081556 14 302 4.8 9.7 0.00 0.25 0.03 73 1014.2
20260506073057 14 300 6.4 14.5 0.00 0.25 0.03 73 1014.2
20260506071555 14 334 4.8 14.5 0.00 0.25 0.03 73 1014.1
20260506061602 13 176 3.2 11.3 0.00 0.25 0.03 76 1014.0
20260506050106 12 250 3.2 11.3 0.00 0.25 0.03 78 1013.5
20260506044552 12 203 1.6 8.0 0.00 0.25 0.03 78 1013.6
20260506043054 12 330 3.2 11.3 0.00 0.25 0.03 78 1013.6
20260506041553 12 4 1.6 11.3 0.00 0.25 0.03 79 1013.6
20260506034551 12 193 3.2 9.7 0.00 0.28 0.03 77 1013.7
20260506033050 12 252 1.6 14.5 0.00 0.28 0.03 79 1013.7
20260506031553 12 299 1.6 9.7 0.00 0.28 0.03 79 1013.7
20260506030058 12 204 1.6 9.7 0.00 0.28 0.03 80 1013.8
20260506024557 12 278 1.6 8.0 0.00 0.33 0.03 80 1013.9
20260506023054 12 257 1.6 9.7 0.00 0.33 0.03 81 1013.8
20260506021602 12 339 1.6 4.8 0.00 0.33 0.03 81 1013.7
20260506020050 12 255 3.2 11.3 0.00 0.33 0.03 80 1013.8
20260506014550 12 20 3.2 11.3 0.00 0.36 0.03 81 1013.9
20260506013057 12 316 1.6 11.3 0.00 0.36 0.03 81 1014.0
20260506011605 12 148 1.6 11.3 0.00 0.36 0.03 81 1014.1
20260506010053 12 262 1.6 6.4 0.00 0.33 0.00 84 1014.2
20260506004552 12 202 0.0 3.2 0.00 0.38 0.00 83 1014.3
20260506003055 12 0 1.6 8.0 0.00 0.38 0.00 83 1014.5
20260506001555 12 193 0.0 4.8 0.00 0.38 0.00 84 1014.5
20260506000054 12 0 0.0 4.8 0.00 0.38 0.00 83 1014.5
20260505234605 12 307 1.6 4.8 0.00 0.41 0.00 83 1014.4
20260505233051 12 293 1.6 6.4 0.00 0.41 0.00 84 1014.4
20260505231604 12 247 0.0 6.4 0.00 0.41 0.00 83 1014.4
20260505230053 12 321 1.6 6.4 0.00 0.38 0.00 83 1014.4
20260505224553 11 169 1.6 4.8 0.00 0.38 0.00 84 1014.4
20260505223103 11 0 0.0 3.2 0.00 0.38 0.00 86 1014.5
20260505221559 11 0 0.0 3.2 0.00 0.38 0.00 86 1014.6
20260505220053 11 122 0.0 1.6 0.00 0.38 0.00 85 1014.7
20260505214612 11 0 0.0 3.2 0.00 0.38 0.38 85 1014.7
20260505213102 11 0 0.0 1.6 0.00 0.38 0.38 85 1014.8
20260505211603 12 0 0.0 4.8 0.00 0.38 0.38 84 1014.9
20260505210052 12 254 1.6 8.0 0.00 0.38 0.38 84 1015.0
20260505204555 12 174 0.0 6.4 0.00 0.38 0.38 85 1014.9
20260505203054 12 176 1.6 8.0 0.05 0.38 0.38 84 1014.9
20260505201557 12 237 1.6 8.0 0.05 0.38 0.38 85 1014.7
20260505200105 12 224 1.6 4.8 0.05 0.38 0.38 85 1014.7
20260505194555 12 278 3.2 11.3 0.03 0.36 0.36 85 1014.5
20260505193046 12 176 1.6 6.4 0.00 0.33 0.33 84 1014.5
20260505191554 12 300 1.6 11.3 0.10 0.33 0.33 84 1014.3
20260505190054 12 306 1.6 6.4 0.15 0.33 0.33 85 1014.4
20260505184556 12 103 0.0 3.2 0.15 0.33 0.33 85 1014.4
20260505183103 13 176 0.0 3.2 0.15 0.33 0.33 84 1014.3
20260505181552 13 0 0.0 4.8 0.03 0.20 0.20 80 1014.3
20260505180053 14 314 1.6 8.0 0.00 0.18 0.18 75 1014.3